KB4JHU-15 Weather Reports


time (UTC)temp
C
wind
direction
speed
KPH
gust
KPH
rain 1hr
cm
rain 24hr
cm
rain mn
cm
humidity
%
barometer
mb
20260906045828 26 159 3.2 3.2 0.00 0.00 0.00 74
20260906042827 26 312 4.8 4.8 0.00 0.00 0.00 78
20260906035826 26 360 0.0 1.6 0.00 0.00 0.00 79
20260906032825 26 360 0.0 0.0 0.00 0.00 0.00 78
20260906025824 26 319 1.6 3.2 0.00 0.00 0.00 76
20260906022823 26 360 0.0 0.0 0.00 0.00 0.00 74
20260906015822 27 360 0.0 0.0 0.00 0.00 0.00 73
20260906012821 26 360 0.0 0.0 0.00 0.00 0.00 72
20260906005820 29 360 0.0 0.0 0.00 0.00 0.00 65
20260906002819 28 360 0.0 0.0 0.00 0.00 0.00 65
20260905235818 30 360 0.0 1.6 0.00 0.00 0.00 59
20260905232817 30 360 0.0 0.0 0.00 0.00 0.00 54
20260905225816 30 205 1.6 1.6 0.00 0.00 0.00 54
20260905222815 30 84 6.4 8.0 0.00 0.00 0.00 53
20260905215814 33 93 14.5 14.5 0.00 0.00 0.00 44
20260905212813 36 34 3.2 3.2 0.00 0.00 0.00 40
20260905205812 37 37 3.2 4.8 0.00 0.00 0.00 36
20260905202811 36 11 4.8 4.8 0.00 0.00 0.00 38
20260905195810 36 318 6.4 8.0 0.00 0.00 0.00 40
20260905192809 36 27 6.4 6.4 0.00 0.00 0.00 40
20260905185808 36 87 6.4 6.4 0.00 0.00 0.00 42
20260905182807 37 20 6.4 6.4 0.00 0.00 0.00 40
20260905175806 36 68 6.4 6.4 0.00 0.00 0.00 40
20260905172805 36 56 6.4 6.4 0.00 0.00 0.00 42
20260905165804 36 20 4.8 4.8 0.00 0.00 0.00 43
20260905162803 35 125 3.2 3.2 0.00 0.00 0.00 45
20260905155802 33 52 3.2 3.2 0.00 0.00 0.00 49
20260905152801 32 58 1.6 3.2 0.00 0.00 0.00 53
20260905145800 30 93 3.2 3.2 0.00 0.00 0.00 64
20260905142802 28 21 1.6 1.6 0.00 0.00 0.00 72
20260905135758 27 360 0.0 0.0 0.00 0.00 0.00 78
20260905132757 26 360 0.0 0.0 0.00 0.00 0.00 85
20260905125756 24 360 0.0 0.0 0.00 0.00 0.00 91
20260905122755 23 360 0.0 0.0 0.00 0.00 0.00 94
20260905115754 23 360 0.0 0.0 0.00 0.00 0.00 94
20260905112753 23 360 0.0 0.0 0.00 0.00 0.00 94
20260905105752 23 360 0.0 0.0 0.00 0.00 0.00 94
20260905102751 23 360 0.0 0.0 0.00 0.00 0.00 94
20260905095750 23 360 0.0 0.0 0.00 0.00 0.00 93
20260905092749 23 360 0.0 0.0 0.00 0.00 0.00 93
20260905085748 23 360 0.0 0.0 0.00 0.00 0.00 92
20260905082747 23 11 1.6 1.6 0.00 0.00 0.00 92
20260905075746 23 360 0.0 0.0 0.00 0.00 0.00 92
20260905072745 24 360 0.0 0.0 0.00 0.00 0.00 92
20260905065744 24 360 0.0 0.0 0.00 0.00 0.00 91
20260905062743 25 360 0.0 0.0 0.00 0.00 0.00 90
20260905055742 24 360 0.0 0.0 0.00 0.00 0.00 89
20260905052741 25 360 0.0 0.0 0.00 0.00 0.00 88